• In Belarus
  • List of Countries
  • For 7 days
  • Water Temperature
  • Satellite Maps
  • Weather Map
  • Weather Widgets
  • user-avatar
    Login

    Hourly Weather Bijeljina

    Today, 15 October, Monday

    Time Temperature Precipitation Wind Pressure Humidity
    00:00 +12°C° 0 mm 3 mps 758 mmHg 50%
    01:00 +12°C° 0 mm 2 mps 758 mmHg 53%
    02:00 +12°C° 0 mm 2 mps 758 mmHg 55%
    03:00 +12°C° 0 mm 2 mps 758 mmHg 56%
    04:00 +12°C° 0 mm 2 mps 758 mmHg 57%
    05:00 +11°C° 0 mm 3 mps 758 mmHg 57%
    06:00 +12°C° 0 mm 3 mps 758 mmHg 56%
    07:00 +13°C° 0 mm 3 mps 758 mmHg 54%
    08:00 +15°C° 0 mm 4 mps 758 mmHg 48%
    09:00 +18°C° 0 mm 4 mps 758 mmHg 43%
    10:00 +20°C° 0 mm 4 mps 758 mmHg 38%
    11:00 +22°C° 0 mm 4 mps 757 mmHg 36%
    12:00 +23°C° 0 mm 5 mps 757 mmHg 34%
    13:00 +25°C° 0 mm 5 mps 757 mmHg 32%
    14:00 +25°C° 0 mm 4 mps 757 mmHg 34%
    15:00 +23°C° 0 mm 4 mps 756 mmHg 36%
    16:00 +23°C° 0 mm 4 mps 756 mmHg 37%
    17:00 +20°C° 0 mm 3 mps 756 mmHg 41%
    18:00 +18°C° 0 mm 3 mps 757 mmHg 45%
    19:00 +16°C° 0 mm 2 mps 757 mmHg 50%
    20:00 +16°C° 0 mm 2 mps 757 mmHg 52%
    21:00 +15°C° 0 mm 2 mps 757 mmHg 54%
    22:00 +15°C° 0 mm 2 mps 757 mmHg 56%
    23:00 +14°C° 0 mm 2 mps 757 mmHg 58%

    Tomorrow, 16 October, Tuesday

    Time Temperature Precipitation Wind Pressure Humidity
    00:00 +14°C° 0 mm 1 mps 757 mmHg 60%
    01:00 +14°C° 0 mm 1 mps 757 mmHg 62%
    02:00 +13°C° 0 mm 1 mps 757 mmHg 64%
    03:00 +13°C° 0 mm 1 mps 757 mmHg 65%
    04:00 +13°C° 0 mm 1 mps 757 mmHg 67%
    05:00 +13°C° 0 mm 1 mps 757 mmHg 67%
    06:00 +14°C° 0 mm 1 mps 758 mmHg 66%
    07:00 +14°C° 0 mm 1 mps 758 mmHg 66%
    08:00 +16°C° 0 mm 1 mps 758 mmHg 58%
    09:00 +20°C° 0 mm 1 mps 758 mmHg 51%
    10:00 +23°C° 0 mm 1 mps 758 mmHg 43%
    11:00 +24°C° 0 mm 2 mps 758 mmHg 40%
    12:00 +25°C° 0 mm 2 mps 757 mmHg 38%
    13:00 +26°C° 0 mm 2 mps 757 mmHg 35%
    14:00 +26°C° 0 mm 2 mps 757 mmHg 37%
    15:00 +25°C° 0 mm 2 mps 757 mmHg 39%
    16:00 +25°C° 0 mm 2 mps 756 mmHg 40%
    17:00 +23°C° 0 mm 2 mps 757 mmHg 44%
    18:00 +20°C° 0 mm 2 mps 757 mmHg 48%
    19:00 +18°C° 0 mm 2 mps 757 mmHg 52%
    20:00 +18°C° 0 mm 1 mps 757 mmHg 53%
    21:00 +16°C° 0 mm 1 mps 757 mmHg 55%
    22:00 +16°C° 0 mm 1 mps 758 mmHg 56%
    23:00 +15°C° 0 mm 1 mps 757 mmHg 58%

    Day after tomorrow, 17 October, Wednesday

    Time Temperature Precipitation Wind Pressure Humidity
    00:00 +15°C° 0 mm 1 mps 757 mmHg 60%
    01:00 +14°C° 0 mm 1 mps 757 mmHg 62%
    02:00 +14°C° 0 mm 1 mps 757 mmHg 64%
    03:00 +13°C° 0 mm 1 mps 757 mmHg 66%
    04:00 +13°C° 0 mm 1 mps 757 mmHg 68%
    05:00 +13°C° 0 mm 1 mps 757 mmHg 67%
    06:00 +13°C° 0 mm 1 mps 757 mmHg 66%
    07:00 +14°C° 0 mm 1 mps 757 mmHg 66%
    08:00 +16°C° 0 mm 1 mps 757 mmHg 58%
    09:00 +20°C° 0 mm 1 mps 757 mmHg 50%
    10:00 +22°C° 0 mm 1 mps 756 mmHg 42%
    11:00 +23°C° 0 mm 2 mps 756 mmHg 39%
    12:00 +25°C° 0 mm 2 mps 756 mmHg 35%
    13:00 +26°C° 0 mm 3 mps 755 mmHg 32%
    14:00 +25°C° 0 mm 3 mps 755 mmHg 33%
    15:00 +25°C° 0 mm 2 mps 755 mmHg 34%
    16:00 +24°C° 0 mm 2 mps 754 mmHg 35%
    17:00 +21°C° 0 mm 2 mps 755 mmHg 39%
    18:00 +19°C° 0 mm 2 mps 755 mmHg 44%
    19:00 +17°C° 0 mm 2 mps 755 mmHg 48%
    20:00 +16°C° 0 mm 2 mps 755 mmHg 51%
    21:00 +16°C° 0 mm 2 mps 755 mmHg 54%
    22:00 +15°C° 0 mm 2 mps 755 mmHg 58%
    23:00 +15°C° 0 mm 1 mps 755 mmHg 60%

    18 October, Thursday

    Time Temperature Precipitation Wind Pressure Humidity
    00:00 +14°C° 0 mm 1 mps 755 mmHg 63%
    01:00 +14°C° 0 mm 1 mps 755 mmHg 66%
    02:00 +13°C° 0 mm 1 mps 755 mmHg 68%
    03:00 +13°C° 0 mm 1 mps 755 mmHg 70%
    04:00 +12°C° 0 mm 1 mps 755 mmHg 72%
    05:00 +13°C° 0 mm 1 mps 755 mmHg 72%
    06:00 +13°C° 0 mm 1 mps 755 mmHg 71%
    07:00 +13°C° 0 mm 1 mps 755 mmHg 70%
    08:00 +16°C° 0 mm 1 mps 755 mmHg 61%
    09:00 +19°C° 0 mm 1 mps 755 mmHg 53%
    10:00 +22°C° 0 mm 1 mps 755 mmHg 44%
    11:00 +23°C° 0 mm 2 mps 754 mmHg 41%
    12:00 +24°C° 0 mm 2 mps 754 mmHg 38%
    13:00 +25°C° 0 mm 2 mps 754 mmHg 35%
    14:00 +25°C° 0 mm 2 mps 754 mmHg 38%
    15:00 +24°C° 0 mm 2 mps 753 mmHg 40%
    16:00 +24°C° 0 mm 2 mps 753 mmHg 43%
    17:00 +22°C° 0 mm 1 mps 754 mmHg 49%
    18:00 +20°C° 0 mm 1 mps 754 mmHg 54%
    19:00 +18°C° 0 mm 1 mps 754 mmHg 60%
    20:00 +16°C° 0 mm 1 mps 754 mmHg 63%
    21:00 +16°C° 0 mm 1 mps 755 mmHg 65%
    22:00 +15°C° 0 mm 1 mps 755 mmHg 67%
    23:00 +15°C° 0 mm 1 mps 755 mmHg 69%

    19 October, Friday

    Time Temperature Precipitation Wind Pressure Humidity
    00:00 +14°C° 0 mm 1 mps 755 mmHg 71%
    01:00 +14°C° 0 mm 1 mps 755 mmHg 73%
    02:00 +14°C° 0 mm 1 mps 755 mmHg 74%
    03:00 +13°C° 0 mm 1 mps 755 mmHg 75%
    04:00 +13°C° 0 mm 1 mps 755 mmHg 76%
    05:00 +13°C° 0 mm 1 mps 755 mmHg 74%
    06:00 +14°C° 0 mm 1 mps 755 mmHg 72%
    07:00 +14°C° 0 mm 1 mps 756 mmHg 71%
    08:00 +16°C° 0 mm 1 mps 756 mmHg 64%
    09:00 +19°C° 0 mm 1 mps 756 mmHg 57%
    10:00 +22°C° 0 mm 1 mps 755 mmHg 49%
    11:00 +23°C° 0 mm 1 mps 755 mmHg 47%
    12:00 +24°C° 0 mm 1 mps 755 mmHg 44%
    13:00 +25°C° 0 mm 1 mps 755 mmHg 42%
    14:00 +24°C° 0 mm 1 mps 755 mmHg 44%
    15:00 +24°C° 0 mm 1 mps 755 mmHg 46%
    16:00 +23°C° 0 mm 1 mps 755 mmHg 48%
    17:00 +21°C° 0 mm 1 mps 755 mmHg 53%
    18:00 +20°C° 0 mm 1 mps 755 mmHg 58%
    19:00 +18°C° 0 mm 1 mps 755 mmHg 63%
    20:00 +16°C° 0 mm 1 mps 756 mmHg 66%
    21:00 +16°C° 0 mm 1 mps 756 mmHg 68%
    22:00 +15°C° 0 mm 1 mps 756 mmHg 70%
    23:00 +15°C° 0 mm 1 mps 756 mmHg 72%

    20 October, Saturday

    Time Temperature Precipitation Wind Pressure Humidity
    00:00 +15°C° 0 mm 1 mps 756 mmHg 73%
    01:00 +14°C° 0 mm 1 mps 756 mmHg 75%
    02:00 +14°C° 0 mm 1 mps 757 mmHg 77%
    03:00 +13°C° 0 mm 1 mps 757 mmHg 78%
    04:00 +13°C° 0 mm 2 mps 757 mmHg 80%
    05:00 +13°C° 0 mm 2 mps 757 mmHg 79%
    06:00 +13°C° 0 mm 2 mps 757 mmHg 78%
    07:00 +13°C° 0 mm 2 mps 758 mmHg 78%
    08:00 +15°C° 0 mm 2 mps 758 mmHg 69%
    09:00 +18°C° 0 mm 2 mps 758 mmHg 60%
    10:00 +20°C° 0 mm 3 mps 758 mmHg 50%
    11:00 +21°C° 0 mm 3 mps 758 mmHg 48%
    12:00 +22°C° 0 mm 3 mps 757 mmHg 45%
    13:00 +22°C° 0 mm 3 mps 757 mmHg 42%
    14:00 +22°C° 0 mm 3 mps 757 mmHg 44%
    15:00 +21°C° 0 mm 3 mps 757 mmHg 46%
    16:00 +21°C° 0 mm 3 mps 757 mmHg 47%
    17:00 +19°C° 0 mm 2 mps 757 mmHg 53%
    18:00 +17°C° 0 mm 2 mps 758 mmHg 59%
    19:00 +15°C° 0 mm 2 mps 758 mmHg 65%
    20:00 +15°C° 0 mm 2 mps 758 mmHg 65%
    21:00 +15°C° 0 mm 2 mps 758 mmHg 66%
    22:00 +15°C° 0 mm 2 mps 759 mmHg 66%
    23:00 +15°C° 0 mm 2 mps 759 mmHg 66%
    Show more